Theta_e
334 332 330 328 326 325 326 327 329 329 329 330 330 330 330 329 329 329 329 329 329 331 332 333 332 332 330 329 330 329 328 329 330 331 330 330 331 329 329 330 330 330 330 329 329 329 329 327 323 320 318 316 316 320 324 324 324 323 320 318 315 314 314 314 313 312 314 315 315 316 318 317 317 320 318 314 317 320 319 319 319 317 317 318 319
332 331 331 327 325 327 328 330 331 331 331 331 331 331 331 330 330 329 329 329 330 330 332 332 332 331 331 330 330 329 328 330 330 330 330 330 330 329 329 330 330 330 330 329 329 328 328 327 324 322 321 321 322 324 326 326 326 326 324 323 321 320 317 314 312 311 311 311 310 311 312 312 313 315 314 312 314 317 317 319 319 318 317 318 318
330 330 330 328 326 327 329 331 331 331 331 331 331 331 331 330 330 330 329 330 330 330 330 331 332 331 331 330 329 329 330 330 330 329 330 330 329 330 329 329 329 329 328 328 329 328 328 327 323 321 323 324 325 326 327 328 328 327 327 326 325 325 321 314 312 310 309 308 308 308 308 307 308 308 308 309 309 311 314 316 318 318 317 318 318
330 329 328 327 327 328 330 331 331 330 330 331 331 330 331 330 330 330 330 330 330 330 329 330 332 332 331 330 330 331 331 329 328 329 329 329 329 330 330 329 329 328 328 329 329 328 329 328 325 325 326 327 327 328 329 329 329 328 328 328 327 327 324 318 314 313 312 310 308 308 307 307 307 306 307 307 308 309 310 311 314 316 315 316 318
332 331 329 327 327 330 331 331 330 330 330 331 330 330 330 330 329 329 330 330 330 331 330 330 332 332 332 331 330 331 331 329 328 328 329 330 331 331 331 331 330 329 329 329 329 328 329 330 329 328 328 329 329 329 330 330 330 329 329 329 328 327 326 324 321 320 318 316 313 310 309 310 309 308 308 308 309 309 309 309 310 312 312 313 317
333 332 331 329 328 330 330 331 331 331 331 331 331 330 330 329 329 329 329 331 332 332 331 332 333 332 332 331 329 328 328 328 327 327 329 329 331 331 331 331 331 331 330 330 329 329 329 329 329 329 328 329 329 329 330 330 330 330 330 330 329 328 327 327 325 324 324 323 321 317 316 317 317 316 314 312 311 309 309 310 308 309 310 311 314
334 333 332 331 330 331 331 331 331 331 331 331 331 330 329 329 329 328 329 332 333 332 332 333 333 331 331 329 326 325 325 325 325 327 329 329 330 331 331 331 330 330 330 330 330 329 329 328 329 329 328 328 328 329 329 329 330 330 329 330 330 329 328 328 327 326 326 325 325 323 322 323 323 322 321 317 314 312 310 310 310 309 310 310 311
334 333 333 332 332 332 332 331 331 331 331 331 331 330 330 329 328 327 329 332 333 332 332 332 332 330 329 326 324 324 325 325 326 328 330 330 330 331 330 329 328 329 329 330 330 328 328 328 328 328 328 327 328 329 328 328 329 329 329 329 329 329 329 328 328 328 327 326 326 325 325 324 324 324 323 321 318 315 312 311 311 310 310 310 309
334 334 333 333 332 332 332 331 332 332 331 332 332 330 330 329 328 327 330 332 332 332 332 331 330 328 326 324 323 325 325 326 329 329 329 330 329 329 329 328 327 328 328 328 328 328 328 328 327 327 327 327 327 328 328 328 328 328 328 328 328 329 329 329 329 329 328 328 327 327 326 325 325 325 325 324 322 320 317 314 313 313 313 312 310
334 333 333 332 332 332 331 331 332 333 332 332 332 331 330 329 328 328 330 332 331 332 332 330 328 327 327 326 326 325 325 326 329 328 328 329 328 328 328 328 328 327 327 327 326 327 327 327 327 327 327 327 327 326 325 325 326 327 327 328 328 328 328 329 329 329 329 329 328 328 327 326 325 325 325 325 324 323 322 320 318 318 317 317 316
333 333 332 332 331 331 331 331 332 332 332 332 332 331 330 329 328 329 330 331 331 332 331 329 329 329 329 329 328 328 326 327 328 327 328 328 327 327 327 327 327 327 327 326 326 327 327 328 327 327 327 326 325 323 321 320 321 325 327 327 327 327 327 327 328 329 328 329 329 328 328 327 326 326 325 325 325 325 324 324 323 322 321 321 321
333 332 332 332 332 332 332 332 332 332 332 332 332 331 330 330 330 330 330 330 331 331 331 330 330 330 329 329 329 329 329 329 329 329 328 329 328 328 327 327 327 328 327 327 327 327 328 328 328 327 326 325 323 321 319 320 320 324 327 327 327 327 327 327 328 328 328 328 328 328 328 328 327 326 326 325 326 326 326 325 325 324 324 323 323
333 332 332 332 332 332 332 332 332 332 332 332 332 331 330 331 331 330 330 330 330 331 330 329 329 329 328 329 329 329 329 329 329 329 329 329 329 328 329 329 328 328 328 327 327 327 327 327 327 326 324 323 321 320 321 323 322 324 326 327 327 327 327 327 328 328 328 327 327 327 327 327 327 327 326 326 326 327 326 326 326 325 324 324 324
332 332 332 332 332 332 333 333 332 332 332 331 331 331 330 331 331 330 330 329 330 330 329 329 329 328 328 328 327 327 327 328 328 329 328 328 329 328 329 329 329 328 328 326 326 326 325 324 324 323 322 321 319 321 324 325 324 325 326 327 327 327 327 328 328 327 327 327 326 326 326 326 326 326 326 326 327 326 327 327 327 326 325 325 325
332 332 332 332 332 332 333 333 332 332 331 331 331 331 330 331 330 330 330 329 330 329 329 329 330 329 328 328 327 326 326 327 327 327 327 327 327 328 328 328 328 328 327 326 326 325 322 320 320 320 320 319 320 323 325 325 325 325 326 327 327 327 327 327 327 326 326 326 326 326 326 326 325 326 326 325 326 326 326 326 326 326 325 325 325
333 333 333 333 333 333 333 333 332 332 331 331 331 331 331 331 331 331 330 330 330 330 329 329 329 329 329 329 328 328 327 326 326 325 326 327 326 327 327 327 327 326 326 326 324 320 315 315 318 318 318 318 320 323 325 325 325 325 325 326 326 326 326 326 325 325 325 326 325 325 325 325 325 325 325 325 325 325 325 325 326 325 325 325 325
333 333 333 333 333 332 332 333 332 332 332 332 331 331 331 331 331 331 331 330 330 331 330 328 328 329 329 329 328 329 327 325 326 325 325 325 325 326 326 326 326 325 325 324 320 315 311 313 315 315 316 317 319 322 324 325 325 325 325 325 325 325 325 325 325 324 323 323 322 322 323 324 324 324 324 325 325 325 325 325 325 324 324 324 324
333 333 332 332 332 332 332 332 332 331 332 332 331 331 331 331 331 330 330 330 331 332 330 328 327 327 327 328 328 328 327 325 326 326 325 325 324 325 326 326 325 324 323 321 316 311 309 311 312 313 314 317 319 321 322 323 324 325 324 324 324 324 323 322 321 320 319 318 317 317 318 320 321 321 321 322 323 323 324 324 324 324 323 322 320
333 333 332 332 332 332 331 331 331 331 332 332 331 331 331 331 330 330 330 329 330 332 331 328 328 327 326 327 327 328 327 326 326 326 325 324 324 324 324 324 324 322 321 318 312 308 308 309 310 312 313 315 317 319 320 322 323 323 323 322 321 321 319 318 316 314 312 311 310 310 311 312 313 314 314 315 317 319 320 320 319 319 319 317 316
333 332 332 332 332 332 331 331 331 331 331 331 331 331 330 330 330 330 329 329 329 332 331 329 329 328 327 327 327 327 326 327 327 326 325 324 323 324 323 323 322 321 319 314 308 307 308 308 309 310 312 313 314 315 317 319 319 319 317 316 315 314 313 311 309 307 306 305 304 304 304 305 305 305 306 307 308 309 311 311 311 310 310 310 309
332 331 331 331 331 331 331 331 331 331 331 331 331 331 330 329 330 330 329 329 329 330 330 328 328 328 327 327 326 326 325 326 327 327 326 324 323 323 323 323 322 321 318 311 306 307 307 307 308 309 309 310 310 311 312 313 312 310 309 308 307 306 305 305 304 303 303 303 303 303 302 302 302 302 302 302 302 302 303 303 303 303 303 303 303
330 330 330 330 330 331 331 331 331 331 331 331 331 331 330 329 329 330 330 329 328 329 329 328 328 328 327 327 326 325 325 326 327 327 327 326 324 323 323 323 322 321 318 310 306 307 306 306 307 307 308 308 308 308 308 307 306 304 304 303 303 303 303 303 304 304 303 303 303 303 303 303 303 302 302 302 302 302 302 301 301 300 300 300 300
328 327 328 328 328 329 330 331 331 331 331 331 331 331 330 329 329 328 329 329 328 328 328 328 328 327 327 327 326 326 326 326 326 326 326 327 325 323 323 322 322 321 317 309 307 307 306 306 306 306 306 306 306 306 304 304 303 304 304 304 305 305 305 304 304 303 302 302 302 302 302 302 301 301 302 302 302 302 302 302 302 301 300 300 300
326 325 325 325 325 326 327 328 330 331 331 330 331 332 331 330 329 328 327 328 328 328 328 329 329 328 329 328 325 325 327 326 326 326 327 327 325 324 323 322 321 320 315 309 308 308 307 306 306 306 305 306 305 303 303 304 305 306 306 305 305 305 304 303 303 302 302 302 302 302 302 301 301 300 300 301 301 302 301 301 301 301 301 301 301
324 324 324 324 324 324 325 326 328 330 330 329 331 332 331 330 330 329 328 328 328 328 328 329 329 329 330 328 325 324 325 325 325 326 327 327 326 324 323 322 321 318 314 311 309 308 307 307 306 306 306 305 303 303 305 307 307 307 306 304 304 303 303 303 303 303 304 304 303 303 303 303 303 302 300 300 300 301 302 301 301 301 301 300 300
324 324 324 324 323 323 323 324 327 329 328 328 329 331 331 331 330 329 329 329 328 328 328 329 330 330 330 329 327 325 324 323 323 325 326 326 326 324 322 322 321 318 314 312 311 309 308 307 306 306 305 304 303 304 307 308 307 307 307 305 303 303 304 305 305 305 304 305 305 305 305 306 305 304 302 301 300 300 301 301 302 302 301 301 301
324 324 323 323 323 324 324 324 326 327 327 327 328 329 330 331 330 329 329 329 329 328 328 328 328 329 329 329 328 326 324 322 322 323 325 325 325 324 323 322 320 318 316 313 312 311 309 307 306 306 305 302 302 306 308 308 308 307 307 306 305 305 306 306 306 305 305 305 305 306 306 307 307 306 304 303 302 301 300 301 301 302 302 302 302
324 324 323 323 324 324 325 325 326 327 326 326 326 327 328 329 330 329 328 328 328 327 327 327 327 327 328 328 328 327 324 322 322 322 324 324 324 323 323 322 319 317 317 315 314 313 310 308 307 306 305 302 302 307 308 307 308 308 307 307 307 306 306 306 306 306 306 305 306 306 306 306 307 306 305 304 303 302 301 301 301 301 302 302 302
323 324 323 323 323 323 323 324 325 325 325 325 325 326 327 328 329 328 327 328 328 327 327 327 326 327 327 327 328 328 325 322 321 321 322 322 322 322 322 321 318 316 317 315 315 314 311 310 309 306 305 303 303 306 306 306 307 307 307 307 307 307 307 306 307 306 306 306 306 306 306 306 306 306 305 304 303 303 302 301 301 301 301 302 303
322 323 323 322 322 322 322 323 323 324 324 325 326 327 328 328 328 328 328 328 327 327 327 326 326 326 327 327 328 328 326 324 321 320 320 321 321 322 321 320 318 316 316 315 315 315 313 311 310 308 306 305 304 304 304 305 306 306 307 307 306 307 307 306 307 306 306 306 305 305 305 306 306 306 306 304 303 303 302 302 301 301 301 302 302
322 323 323 322 322 321 322 323 324 325 326 327 327 327 328 328 328 327 327 327 327 326 326 325 325 326 327 327 328 328 327 325 321 319 320 321 320 320 320 318 316 316 317 315 314 316 314 312 311 309 307 307 306 305 304 304 305 306 306 306 306 306 306 306 306 306 306 306 305 305 305 305 306 306 306 305 303 303 302 302 301 301 301 301 302
322 323 323 322 321 320 321 323 325 327 327 327 327 327 327 327 327 326 325 325 325 324 323 323 325 327 327 327 328 327 326 325 322 319 319 320 320 320 319 317 314 313 315 316 314 315 315 312 312 310 308 308 307 306 306 305 305 306 306 306 307 307 306 305 305 306 306 305 306 305 305 305 306 306 306 305 304 303 302 301 301 301 301 301 301
323 323 323 322 320 320 321 323 325 326 326 326 326 327 326 325 323 321 319 318 318 319 320 322 324 325 325 326 327 327 326 325 322 319 318 319 318 319 318 317 314 311 313 315 314 315 314 311 312 311 307 307 307 307 307 307 305 306 306 306 306 306 306 306 305 305 305 305 305 305 306 306 306 306 306 305 304 303 302 301 301 301 301 301 301
323 323 322 321 319 320 322 323 323 324 324 324 324 322 319 317 316 314 313 313 314 316 317 318 318 319 319 320 321 323 326 326 324 321 320 320 318 318 317 317 315 312 312 314 314 315 314 311 311 311 307 306 308 308 308 308 307 306 307 307 306 306 306 306 306 306 306 305 305 305 305 306 306 306 306 305 304 303 302 301 301 301 301 302 302
323 322 322 320 319 319 322 323 322 322 322 322 321 318 315 315 314 313 312 313 314 315 315 315 315 315 315 315 315 317 320 324 325 324 323 322 319 316 316 316 315 314 312 313 313 314 314 313 312 311 309 307 308 309 308 307 307 306 307 308 307 306 305 306 306 306 306 306 305 305 305 306 305 306 306 305 303 303 302 301 301 301 301 302 301
321 321 321 320 319 318 319 320 320 319 318 319 319 318 318 318 318 315 313 313 314 314 314 314 314 315 314 314 314 315 316 319 321 323 324 324 321 317 315 315 315 314 313 313 313 313 314 314 312 311 311 309 309 310 308 307 306 305 306 307 307 306 305 305 306 306 306 306 306 306 305 306 306 306 305 304 303 302 302 301 300 300 300 301 301
319 320 319 319 318 318 317 317 317 316 316 316 316 317 318 317 317 316 314 313 313 313 313 313 314 314 315 315 314 315 316 316 317 318 320 322 321 318 315 315 315 314 314 313 313 313 313 313 313 312 310 310 310 309 308 307 307 306 306 306 306 306 306 306 305 306 306 306 306 306 305 305 306 306 305 304 303 302 301 300 300 300 300 300 300
317 316 316 316 316 316 316 315 315 315 314 314 314 315 316 315 314 314 315 314 313 314 313 313 312 313 315 315 314 314 316 317 317 317 317 318 320 319 316 315 315 314 314 313 312 312 312 312 313 312 310 309 310 309 308 308 309 308 308 308 307 306 306 306 306 306 305 305 306 306 305 305 306 305 304 303 302 301 300 300 300 299 299 299 299
314 313 313 313 314 314 314 314 313 313 312 312 312 313 314 313 312 313 315 315 315 314 314 313 313 313 314 315 315 315 315 315 316 316 316 317 319 319 317 315 315 314 313 313 312 312 312 312 312 312 312 310 310 310 308 307 308 309 309 309 309 308 306 306 307 306 305 305 305 305 305 305 305 304 303 302 301 300 300 299 299 299 298 298 298
312 313 313 312 312 313 313 313 313 312 311 311 311 312 312 312 312 312 313 315 315 314 314 314 314 314 314 314 314 314 314 314 314 314 315 315 315 315 315 314 314 314 313 313 312 312 312 312 312 312 313 312 310 310 309 308 308 309 309 309 310 311 308 307 307 306 305 305 305 305 305 304 304 303 302 301 300 300 299 299 298 298 298 297 297
313 314 313 313 313 312 312 312 312 312 312 312 312 312 312 312 313 312 312 313 315 315 315 315 315 315 315 314 314 314 314 314 314 313 313 314 314 314 314 314 314 314 313 313 313 313 313 313 312 313 313 312 312 311 310 309 309 311 310 309 310 312 310 308 307 306 306 305 305 304 304 304 303 302 301 301 300 299 299 298 298 297 297 296 296
314 313 314 315 316 315 313 312 311 311 312 312 312 312 312 312 313 313 313 313 314 315 315 316 316 315 315 315 315 314 314 314 313 313 312 312 313 313 313 314 314 314 313 312 313 314 313 313 313 314 313 314 313 312 312 311 310 311 311 310 310 311 310 309 308 306 305 305 305 305 304 303 302 301 301 301 300 299 299 298 297 297 296 296 296
314 314 316 318 318 316 314 312 311 311 311 312 312 312 312 313 312 313 313 313 314 314 315 315 315 315 315 315 314 314 314 314 313 312 312 312 312 312 313 313 313 314 314 313 314 314 314 314 315 315 315 315 315 313 312 312 310 309 310 311 312 312 310 310 311 308 306 305 306 305 304 302 302 302 301 301 299 299 298 298 297 296 296 295 295
316 317 318 318 316 314 314 314 313 313 313 313 312 312 312 313 313 313 313 313 313 313 313 314 314 314 314 314 314 313 313 313 313 313 313 312 312 313 313 313 313 314 314 314 315 315 314 315 316 316 315 315 316 315 312 311 310 309 309 311 313 312 311 311 312 310 308 305 305 306 304 302 301 302 301 300 299 298 298 297 296 296 295 295 295
317 318 318 318 317 316 315 315 314 314 315 315 315 314 314 314 314 314 314 314 314 314 314 314 313 313 313 313 313 313 313 313 313 313 313 313 313 313 314 314 314 315 315 315 315 315 315 315 316 317 316 315 316 316 313 312 311 311 310 311 312 312 312 312 312 311 309 306 304 305 305 302 300 301 301 300 299 298 297 297 296 295 295 295 295
313 313 314 315 316 316 315 314 314 314 314 315 317 317 316 316 316 315 315 315 315 315 315 314 315 314 314 315 315 315 315 315 314 315 315 315 314 313 314 314 314 315 315 316 316 316 316 316 316 317 317 316 315 315 314 313 312 312 311 311 311 311 311 311 311 310 308 306 305 305 305 302 300 301 302 300 298 298 297 296 295 295 295 295 295
306 306 307 308 309 310 311 311 312 312 311 312 314 316 317 318 318 318 318 318 318 318 317 317 317 316 316 316 316 316 316 316 315 315 315 315 316 315 315 315 315 315 315 315 316 316 316 316 316 316 316 316 315 314 314 314 313 313 313 312 312 311 310 309 308 306 305 304 303 304 305 303 300 301 302 300 298 298 298 296 295 295 295 295 295
302 302 302 302 302 303 304 306 307 307 306 307 310 312 313 315 316 317 318 318 319 319 319 319 319 319 319 319 319 318 318 317 317 317 316 315 315 316 316 316 316 316 316 316 316 316 316 316 316 316 315 315 315 314 314 314 314 314 314 313 312 311 310 308 306 304 303 302 301 302 304 303 300 300 301 300 298 298 298 297 296 295 294 294 294
300 300 299 299 300 300 300 302 303 303 303 304 305 306 308 309 311 312 312 313 314 315 315 316 317 317 318 319 319 320 320 319 319 319 318 317 317 317 317 317 317 317 317 317 316 316 316 315 316 316 316 316 316 315 315 314 314 314 314 312 311 310 309 308 307 304 302 301 301 301 302 303 301 300 301 300 298 297 297 298 297 295 294 294 293
300 299 299 298 299 299 299 299 299 300 300 301 301 302 303 304 305 306 306 306 307 308 309 310 311 311 313 314 315 316 317 318 319 319 319 318 317 318 318 318 318 318 318 318 317 316 316 315 315 315 315 315 315 315 315 314 314 313 313 312 311 310 309 309 308 305 302 301 300 300 301 302 300 299 299 300 299 298 297 297 297 296 295 294 294
302 301 300 300 299 298 298 298 298 299 298 299 299 300 300 301 301 302 302 302 302 303 304 305 306 306 307 308 309 310 311 312 315 316 317 318 317 317 318 319 319 319 319 319 318 318 317 316 315 315 314 314 314 314 314 314 313 312 312 312 311 310 309 309 307 305 303 302 300 300 300 301 300 299 299 299 299 299 297 296 296 296 295 295 295
Wind_Speed
10 10 10 10 11 11 11 10 9 10 10 9 9 10 10 11 12 12 12 12 12 14 16 17 17 15 14 12 10 9 9 9 9 8 8 7 8 7 6 7 9 12 11 9 8 7 8 11 11 10 9 9 9 9 9 9 10 11 10 9 9 8 8 7 6 7 7 7 7 7 8 9 9 9 9 9 10 10 11 12 11 10 12 13 12
11 11 11 11 12 11 11 10 9 9 9 8 8 9 9 10 11 11 12 12 12 14 16 17 17 15 13 11 10 9 8 8 8 8 7 7 8 7 7 10 11 12 10 9 8 6 7 10 10 10 10 10 10 9 9 9 9 10 12 12 12 12 10 8 6 6 6 6 7 7 8 8 8 8 8 9 9 9 9 11 11 10 12 12 12
11 11 12 12 11 11 11 10 9 9 8 7 7 8 8 9 10 11 12 11 12 13 15 16 16 15 12 11 10 8 8 8 8 7 7 7 8 8 8 10 10 10 9 9 9 6 8 10 11 12 12 11 11 10 9 9 8 8 11 12 11 11 12 11 7 6 6 7 8 8 9 8 8 8 8 8 8 8 8 9 10 10 10 11 11
10 11 11 11 11 11 10 9 9 8 7 6 6 7 8 8 9 11 11 11 12 13 13 15 15 14 12 10 9 7 7 8 8 7 8 8 8 9 8 8 8 8 7 8 8 7 8 9 10 11 10 10 9 8 7 6 6 6 9 10 9 9 11 12 10 9 8 8 8 9 9 9 8 8 8 8 8 8 8 8 9 8 9 10 11
9 9 9 9 9 9 9 8 7 7 6 5 5 7 8 8 9 10 11 12 13 14 14 14 14 12 10 9 8 7 7 8 8 8 9 9 8 8 7 7 7 6 5 5 6 5 6 7 8 9 7 7 6 5 5 4 3 4 5 7 8 7 9 10 10 11 10 9 9 9 9 9 9 9 8 7 7 7 8 8 8 8 8 9 10
8 8 8 8 8 8 7 7 6 5 6 5 5 7 8 8 9 10 12 12 11 13 13 12 11 9 8 7 8 8 8 7 8 9 9 10 8 7 7 6 6 6 5 3 3 4 4 6 8 7 6 5 5 5 5 4 3 3 3 3 4 4 7 8 8 9 10 10 10 10 10 10 11 11 10 8 7 6 7 8 8 8 8 8 9
7 7 7 8 8 7 6 5 4 4 6 6 6 7 8 8 8 10 11 9 8 9 10 10 10 10 10 9 8 8 9 8 8 8 9 9 8 6 6 5 4 5 5 5 4 5 6 7 8 7 6 6 6 5 5 4 3 3 3 3 2 2 2 4 5 6 7 8 9 9 9 10 12 12 13 11 10 8 7 7 8 8 8 8 8
6 6 6 7 7 6 5 5 5 6 7 7 7 7 8 9 9 9 10 9 8 8 8 9 11 12 13 11 10 9 9 9 7 8 8 7 6 5 5 4 4 5 5 5 5 6 7 8 7 7 6 6 6 6 5 5 4 3 3 3 2 1 2 1 1 2 3 5 6 7 8 8 9 11 12 13 12 11 8 8 8 8 8 9 8
6 6 6 6 7 6 6 6 6 7 8 8 7 7 7 8 9 10 9 8 9 9 9 11 13 14 14 12 11 9 9 9 7 7 7 7 6 5 5 5 5 5 5 5 5 5 6 7 7 6 6 7 7 6 6 6 5 4 4 4 3 2 1 2 2 2 2 1 2 4 5 6 6 8 10 11 12 12 12 11 10 10 9 9 8
6 6 5 6 7 6 7 8 7 7 8 7 7 7 7 8 10 10 7 7 10 9 10 13 15 13 12 11 10 8 8 8 7 7 7 7 6 5 5 5 5 5 5 5 4 4 5 6 6 6 6 7 7 7 6 6 5 5 5 5 4 3 1 2 3 3 4 4 3 2 1 2 3 6 7 8 10 11 12 12 11 11 11 11 10
7 6 6 6 7 7 8 8 8 6 7 7 6 7 8 8 9 9 7 6 9 10 12 15 15 12 11 11 9 7 8 7 6 7 7 6 5 5 5 4 5 5 5 5 4 4 5 5 5 5 6 7 8 7 6 6 5 5 6 6 6 4 3 2 2 3 3 3 4 3 4 4 1 3 4 4 6 8 11 12 11 11 11 12 12
8 8 7 7 7 8 8 8 7 6 6 7 7 6 7 7 7 9 9 8 9 10 13 14 13 12 11 12 10 8 8 8 7 7 6 6 5 4 4 4 4 4 5 6 6 6 6 5 5 6 7 7 7 7 7 7 5 5 6 6 6 6 5 4 2 2 2 2 3 3 4 5 4 2 1 2 2 3 6 8 9 9 10 11 12
9 9 8 8 8 9 9 9 8 7 6 7 7 6 7 6 7 9 10 12 12 12 16 17 14 13 12 12 12 10 9 9 8 7 6 6 5 4 4 4 5 5 7 8 8 8 8 7 6 6 7 7 7 7 8 8 7 7 8 7 6 6 6 5 4 5 5 5 5 4 1 2 3 4 3 1 0 2 2 3 5 5 6 8 9
10 9 9 9 9 10 10 10 8 7 7 7 8 7 7 7 8 11 11 13 13 14 19 18 13 12 13 13 11 11 11 11 10 9 7 6 5 5 5 5 6 7 7 8 8 9 9 8 7 6 7 7 7 8 8 9 10 10 11 9 8 8 8 8 9 9 9 10 11 12 10 7 3 1 1 2 3 4 5 4 4 4 4 4 4
9 9 8 9 10 11 11 11 9 8 8 9 8 8 8 8 10 12 12 12 13 14 18 17 14 13 12 10 7 7 9 10 11 9 8 7 6 6 6 6 7 7 7 8 9 9 8 8 7 7 8 8 9 8 8 10 12 12 12 12 12 12 12 13 13 13 13 13 14 15 15 14 11 8 6 4 3 3 4 3 5 7 6 4 4
9 8 8 8 9 11 11 11 10 9 9 9 9 9 9 10 10 12 14 14 13 13 13 15 17 14 8 6 5 5 5 8 10 9 8 8 7 6 7 8 9 8 9 9 9 9 8 8 8 8 9 9 10 9 9 10 11 12 13 14 15 15 15 16 17 17 16 15 14 14 14 15 15 14 13 12 12 10 9 8 7 6 7 6 5
8 8 8 8 9 10 10 11 10 9 9 8 9 9 9 10 11 13 15 15 15 13 11 16 18 11 6 6 4 3 5 9 10 7 7 9 8 7 8 9 10 10 10 9 8 8 9 9 9 9 10 10 10 10 9 9 10 11 13 14 16 17 17 17 17 16 16 15 15 15 14 14 15 15 15 15 15 15 15 15 16 15 13 11 10
6 7 7 7 8 9 10 9 9 9 9 8 8 9 9 11 12 14 16 16 16 14 12 17 17 9 7 6 0 2 9 12 8 5 7 8 8 8 9 9 10 10 10 9 8 8 9 9 10 10 10 10 10 10 10 11 11 12 13 13 14 16 17 17 17 16 17 17 17 18 17 16 15 15 15 15 15 14 14 15 16 16 14 13 13
6 6 7 7 7 9 9 8 8 8 9 9 9 10 10 11 12 14 16 16 17 14 12 16 14 7 8 5 2 6 14 12 7 7 7 6 7 8 8 8 9 10 10 9 8 9 10 10 10 11 11 11 11 12 12 13 13 13 12 11 12 14 15 16 17 17 17 17 18 18 17 17 16 16 16 15 15 14 14 13 14 13 13 13 14
7 7 7 7 8 9 9 8 8 8 9 9 9 10 11 11 12 14 15 17 17 13 12 15 13 8 8 4 1 11 14 8 9 10 7 6 7 7 7 7 8 10 10 9 8 9 10 11 11 11 12 12 12 13 14 14 15 14 12 11 12 13 14 15 16 17 17 17 17 16 16 16 15 15 15 14 14 14 13 13 13 12 12 13 13
8 8 7 7 7 9 9 8 8 9 10 9 9 10 11 12 14 15 16 16 15 12 12 17 17 12 9 6 6 12 11 7 9 11 9 8 7 7 7 8 8 9 9 9 9 9 9 10 11 12 12 13 14 14 15 15 15 15 13 12 12 13 14 15 16 17 17 17 17 16 16 16 16 16 16 15 15 14 14 13 13 12 12 12 12
8 8 8 8 7 8 9 9 9 9 10 10 10 11 12 13 15 15 15 15 13 11 12 16 18 15 11 8 10 12 10 8 9 10 9 8 7 10 11 9 8 6 6 7 8 8 8 9 11 12 13 14 15 15 15 15 15 15 15 14 14 15 15 16 16 17 18 18 17 17 17 17 17 17 17 17 17 16 16 15 14 14 14 13 13
9 9 9 8 8 7 8 8 8 9 10 10 11 11 12 14 15 14 14 13 12 13 13 13 16 17 12 9 10 12 11 9 10 11 10 9 9 10 11 10 9 6 5 6 7 7 8 8 10 11 13 14 14 15 15 16 16 16 15 15 15 16 16 17 17 18 19 20 21 21 21 20 19 18 18 17 17 17 16 16 15 15 15 15 15
10 9 9 8 7 7 7 8 7 8 9 10 10 11 12 13 14 16 17 15 13 14 14 13 15 16 14 11 11 10 8 7 10 12 10 11 13 11 11 11 8 6 6 6 6 6 6 7 8 10 11 13 14 15 17 17 17 16 16 16 16 17 17 18 19 20 21 22 23 23 23 23 22 22 20 18 17 16 16 15 15 15 14 14 14
10 9 8 7 6 5 6 7 8 8 9 10 10 10 11 11 12 15 15 14 13 13 14 15 15 15 14 13 11 9 7 6 10 11 10 12 14 13 12 10 8 8 7 5 6 6 6 6 7 8 9 11 15 17 19 19 18 17 17 18 17 18 18 18 18 19 19 20 20 21 22 22 23 23 22 21 18 16 15 14 14 14 14 13 13
9 9 7 6 5 4 4 6 8 8 9 10 10 9 9 9 10 12 11 10 11 13 14 13 13 13 13 12 10 9 8 7 11 13 13 14 14 14 13 9 7 9 7 5 6 5 5 6 6 7 9 11 16 19 20 19 18 17 18 19 18 17 16 16 16 16 16 18 18 19 20 20 22 23 23 22 20 17 15 14 13 12 12 12 12
9 7 6 6 5 3 4 7 9 8 8 9 8 8 8 8 8 9 10 10 11 12 12 11 11 12 13 12 10 9 9 8 10 13 13 14 15 17 16 10 6 6 6 6 5 4 6 7 7 7 9 14 18 20 20 19 18 17 17 17 17 15 14 14 14 14 14 15 16 16 17 18 19 21 21 20 19 18 16 14 12 11 11 11 11
8 7 6 6 5 4 5 8 9 8 7 7 7 7 7 7 8 8 9 10 9 9 9 9 9 10 12 12 9 8 8 8 10 13 13 14 17 19 17 13 9 6 5 5 5 5 7 8 7 8 10 14 20 21 20 18 17 16 15 15 15 14 13 12 11 11 11 11 12 13 13 14 16 17 18 18 17 17 16 14 12 11 10 9 10
7 8 7 7 5 5 5 7 8 7 7 6 6 6 7 8 8 8 7 8 8 8 8 8 8 8 10 11 9 9 9 8 10 14 14 15 18 18 14 12 11 8 5 5 5 7 9 9 8 9 12 15 19 21 19 16 16 16 14 13 13 12 11 10 9 8 7 8 8 9 9 10 11 13 14 15 14 14 14 13 12 11 9 8 8
8 8 8 7 5 4 3 4 6 6 6 6 5 6 7 8 8 8 7 7 7 8 8 8 8 8 9 10 10 10 10 10 10 12 14 15 17 17 14 11 9 9 9 7 6 7 10 10 8 10 14 16 18 20 18 16 16 15 14 12 11 11 10 9 7 6 5 4 4 5 5 6 7 9 12 12 12 12 12 12 12 11 9 8 7
9 9 8 7 5 3 3 3 4 6 7 6 5 6 7 8 8 7 7 7 8 8 9 9 9 9 10 11 12 12 12 11 11 12 13 15 17 17 16 14 10 9 11 8 6 8 10 11 9 11 14 16 16 17 18 17 16 15 14 12 11 10 8 8 7 5 4 3 2 1 1 2 4 6 9 10 11 11 11 11 11 10 10 9 8
9 9 8 6 4 3 4 4 5 7 6 6 5 6 7 7 7 7 7 7 8 8 9 8 9 10 11 12 13 14 14 13 13 13 14 15 17 17 17 17 12 10 11 8 5 8 12 11 10 11 14 16 16 16 16 16 16 15 14 13 12 10 9 8 7 6 4 3 3 3 3 3 4 4 6 8 9 10 10 10 11 10 9 8 8
10 9 7 5 4 4 5 5 6 7 7 6 7 7 7 7 7 7 7 7 8 8 8 9 9 10 11 11 13 14 14 14 14 15 15 15 17 17 17 16 14 12 12 8 4 7 12 14 11 11 15 17 16 16 15 15 17 16 14 14 13 11 11 9 8 7 6 5 4 5 6 6 6 5 5 7 8 8 9 9 10 9 8 8 8
9 8 7 6 5 5 6 6 7 8 7 8 8 8 7 7 7 7 6 6 7 8 9 9 9 9 9 9 11 12 14 15 15 15 15 15 16 17 17 15 14 14 13 9 5 6 11 15 14 13 16 18 16 16 17 16 17 17 15 14 13 12 12 11 10 9 9 7 7 8 9 8 8 7 5 6 7 8 8 9 9 8 7 6 6
9 8 7 7 6 5 6 7 6 6 7 7 7 7 7 7 7 7 7 7 8 9 8 8 7 6 6 6 6 9 13 16 17 16 15 15 14 15 16 16 15 16 15 11 7 7 9 13 15 14 15 19 17 14 17 18 18 17 15 13 14 14 14 13 12 11 11 11 11 11 11 10 9 8 6 6 7 7 8 8 8 7 6 5 5
9 9 8 7 6 6 6 6 6 5 5 5 6 6 6 5 6 7 7 7 8 8 8 7 6 5 5 4 3 4 8 13 17 18 17 16 15 14 16 17 17 17 17 14 9 7 8 10 14 14 14 18 17 14 16 19 19 19 16 15 15 15 15 15 14 13 13 13 13 13 13 12 10 8 7 7 7 8 8 7 6 5 5 5 5
9 8 7 7 7 7 7 6 6 5 5 4 4 5 5 5 5 6 7 7 7 7 6 5 5 4 4 3 2 2 4 7 12 16 18 17 17 16 16 17 18 18 18 16 12 9 9 9 12 14 14 15 15 15 18 17 17 18 18 17 17 15 15 16 15 16 16 15 14 13 12 12 10 8 7 7 7 7 7 6 5 5 4 5 5
9 7 7 7 8 8 8 7 7 5 4 4 4 4 5 5 5 5 6 8 8 7 6 4 4 4 3 4 4 4 3 4 7 10 13 15 15 16 17 17 17 19 19 18 14 12 11 10 9 12 15 16 15 16 19 18 15 14 15 16 17 17 16 15 15 16 17 16 15 13 12 11 10 8 7 7 7 6 6 6 5 5 5 6 7
8 7 6 7 7 8 8 7 7 5 4 4 4 4 4 4 4 4 5 6 7 6 5 4 4 5 5 5 5 5 4 3 4 5 7 10 11 13 14 15 15 17 17 16 14 13 12 11 10 10 13 17 16 14 17 19 17 14 14 13 13 16 17 15 14 15 17 17 16 14 13 12 10 8 7 6 6 6 6 6 6 6 7 8 9
7 6 5 5 6 7 7 6 6 5 4 4 4 4 4 4 4 4 5 6 6 5 5 5 5 6 6 6 5 4 4 3 3 3 4 6 8 10 11 12 12 13 13 13 12 12 12 12 12 10 10 13 16 15 15 17 16 15 17 17 13 12 15 15 13 14 16 16 15 14 13 12 9 7 6 6 6 6 6 7 7 7 9 9 11
7 5 4 4 4 5 6 5 5 5 4 3 4 5 6 5 4 4 6 6 6 5 5 5 5 5 6 6 5 5 5 4 4 4 5 6 7 9 10 11 12 12 12 11 11 11 11 11 11 10 10 10 13 14 15 17 18 16 16 19 15 10 10 11 12 15 16 14 13 13 13 11 9 7 6 5 7 7 6 6 6 7 9 10 11
6 5 4 3 4 5 5 5 4 5 5 4 4 6 6 5 4 4 5 7 7 6 6 6 6 6 6 6 6 6 5 6 5 5 6 7 8 9 10 10 11 12 13 12 11 11 11 11 11 11 11 11 13 16 17 19 21 18 15 17 15 11 10 9 9 15 18 15 12 11 12 12 10 8 7 7 8 7 4 4 6 8 10 10 11
6 6 4 4 5 6 5 4 4 3 3 3 2 4 5 5 4 4 4 5 6 7 7 7 6 7 7 7 7 7 7 7 7 7 7 8 9 10 10 10 10 11 12 13 13 13 12 11 11 11 12 12 14 18 19 18 20 22 19 16 14 12 13 11 10 13 18 18 13 9 11 13 10 8 7 7 7 6 5 6 8 9 9 10 10
7 6 5 5 7 8 7 7 6 5 4 2 1 1 2 3 3 3 3 3 4 5 6 6 6 7 8 8 9 9 9 10 10 10 10 10 11 11 11 12 12 11 12 12 12 13 14 12 11 11 13 14 13 15 19 19 20 22 20 15 13 13 14 15 12 10 15 20 15 9 10 13 11 8 7 8 8 7 8 8 9 9 9 9 10
11 10 9 9 11 11 11 10 9 8 7 5 3 1 1 2 3 3 3 3 4 4 5 5 6 7 8 9 10 10 11 11 10 11 12 12 13 13 13 13 14 13 14 14 14 14 15 14 13 13 14 15 13 14 18 18 17 18 17 15 14 15 14 14 13 11 15 20 17 11 9 11 12 9 7 9 10 8 8 8 8 9 9 9 9
15 15 14 13 13 13 12 11 11 10 8 6 4 2 0 1 2 3 4 5 5 6 7 7 8 9 10 10 11 12 13 13 12 12 12 13 14 15 15 16 17 17 17 17 17 17 17 18 17 16 17 18 17 16 17 15 13 13 13 12 12 14 15 15 15 15 16 18 16 11 8 11 12 10 8 9 9 8 8 9 10 10 10 9 10
19 18 17 16 16 15 14 12 12 11 10 8 5 3 1 0 1 2 3 4 4 5 6 7 8 9 10 11 12 13 14 14 15 14 13 14 14 15 16 17 18 19 19 20 20 20 21 21 21 20 20 20 20 19 18 17 16 15 15 14 15 16 16 16 15 14 14 16 18 13 8 9 12 10 8 8 7 6 7 10 12 11 10 10 11
18 18 18 17 16 15 13 12 12 12 10 8 6 4 2 1 0 1 2 3 3 4 5 7 8 8 9 10 10 12 13 13 14 13 13 13 14 15 17 18 19 20 21 21 22 22 23 23 23 23 23 22 22 21 20 20 19 19 19 18 18 18 16 13 11 10 12 16 18 14 8 8 11 10 7 7 7 6 7 8 11 10 9 9 11
17 16 16 16 15 14 13 12 11 10 9 7 6 5 4 3 2 2 3 3 4 5 6 7 8 8 9 10 10 12 12 12 12 12 12 12 13 14 15 16 18 20 22 22 22 23 24 24 24 24 24 24 24 23 22 20 18 18 18 17 18 18 15 12 10 10 12 16 18 15 9 7 9 9 7 6 7 8 7 7 8 9 9 10 12
14 14 13 13 13 13 13 12 10 9 9 8 7 7 7 6 6 6 7 7 7 7 8 9 9 9 10 11 11 12 12 12 13 13 12 12 12 13 13 14 14 16 20 22 23 23 24 24 24 25 24 24 24 23 24 22 21 21 20 20 20 19 16 14 12 10 11 14 17 16 11 7 8 7 5 5 7 7 6 6 7 7 7 9 11
7 7 8 9 10 10 10 10 9 8 8 9 9 9 9 10 9 9 9 10 10 11 11 12 12 12 13 12 12 12 12 12 14 14 13 13 12 12 12 13 15 16 17 19 22 23 24 26 26 25 25 25 25 25 26 24 23 22 22 22 22 20 17 15 14 11 8 10 16 17 11 6 7 6 4 5 5 4 4 5 7 6 6 8 8
Wind_Direction
151 148 150 150 151 150 147 143 135 130 125 120 119 122 125 130 140 150 154 149 139 135 142 150 152 151 152 149 146 148 145 136 128 121 117 113 112 114 106 95 97 95 85 80 89 90 87 79 73 77 83 85 84 88 86 78 71 65 64 61 61 64 64 70 74 73 75 74 73 72 74 73 71 72 65 68 77 73 66 63 58 60 67 66 61
155 150 154 155 153 152 149 144 137 132 127 122 121 124 128 131 136 145 152 152 143 137 142 148 152 156 156 153 155 156 148 138 131 125 123 120 115 114 106 98 93 92 88 84 88 89 89 81 73 78 83 82 85 89 87 80 72 65 62 61 60 57 51 55 60 63 68 67 65 66 69 68 66 67 62 64 72 74 71 68 63 62 68 66 63
157 155 158 157 155 155 153 145 138 134 131 124 125 129 132 134 136 141 148 153 148 142 146 149 154 160 160 161 165 158 145 137 133 129 127 128 124 117 111 104 94 92 91 86 85 89 94 88 78 82 87 87 90 91 87 81 75 67 59 59 63 58 51 53 57 54 55 53 53 54 56 56 55 54 51 53 57 62 67 70 68 65 68 68 66
156 157 159 157 156 158 154 146 140 139 140 133 132 138 138 137 136 138 144 150 148 146 150 151 155 161 161 164 158 140 138 140 135 134 131 129 125 117 111 107 99 97 95 91 96 99 102 100 91 90 93 93 92 86 76 71 68 60 52 52 56 60 56 56 61 62 56 50 49 51 51 50 47 47 48 47 48 51 54 60 65 64 68 71 67
154 157 157 158 160 161 156 150 149 150 153 150 146 146 144 143 139 139 147 152 149 149 153 155 155 154 153 154 144 129 133 139 140 141 137 127 119 114 112 110 105 105 101 100 111 115 111 108 104 103 101 95 86 71 59 52 42 34 36 46 48 52 58 60 64 68 67 62 61 60 57 53 49 50 48 46 50 51 49 51 57 57 60 70 72
163 160 159 164 167 167 164 160 161 168 170 166 159 152 149 147 144 146 153 154 150 152 154 148 139 134 135 144 149 144 138 142 146 146 146 140 134 128 122 119 112 108 104 98 102 112 113 104 97 92 83 70 56 45 43 37 28 15 360 16 33 40 53 62 66 69 72 71 71 71 67 62 60 57 52 50 52 51 50 48 49 52 52 61 72
177 166 164 171 174 172 173 178 188 192 183 176 167 157 154 152 149 153 154 149 145 146 143 133 124 129 141 148 151 149 143 145 149 150 152 148 144 140 132 132 133 125 114 98 80 84 89 82 74 69 62 54 48 41 35 28 25 24 2 344 345 342 28 60 66 63 70 74 74 74 72 69 64 59 53 51 54 53 52 48 46 48 51 53 59
180 172 171 174 177 175 177 195 206 199 188 179 166 158 160 158 155 160 156 146 145 142 134 128 124 134 147 151 151 152 146 141 147 152 153 147 139 137 136 136 136 133 122 105 85 73 69 62 59 63 64 56 57 55 36 27 31 31 17 3 3 328 287 305 44 37 53 69 70 66 65 63 61 57 53 52 54 53 51 55 54 50 50 49 47
176 173 173 177 178 178 184 192 198 193 186 177 167 161 163 164 161 164 160 148 148 143 134 129 126 134 143 144 147 150 139 135 146 150 146 142 139 138 136 133 126 122 116 106 91 74 64 57 55 58 59 55 58 60 42 33 38 34 24 18 15 3 288 277 270 275 293 323 28 53 55 50 52 55 53 51 53 55 54 58 60 55 51 48 46
177 172 176 184 178 180 184 184 187 188 183 175 172 165 164 173 170 165 161 151 151 147 140 132 126 131 135 136 143 142 130 131 142 145 142 138 138 139 133 132 126 115 110 104 95 84 73 66 64 60 58 56 58 63 59 50 47 42 34 27 23 18 334 292 270 273 280 278 287 296 343 17 54 60 55 52 52 55 55 54 55 54 50 48 46
184 178 181 182 176 180 181 181 184 185 181 174 173 171 166 176 176 162 150 151 155 147 139 131 125 127 129 129 129 126 127 133 137 136 135 131 131 135 129 125 121 109 104 101 95 93 82 76 80 78 70 66 65 65 58 52 59 55 41 34 31 24 7 348 287 286 294 289 291 274 264 265 244 61 54 54 53 57 54 49 47 48 47 46 44
191 187 185 180 178 180 180 185 186 181 181 174 172 174 169 171 170 155 143 145 151 141 135 129 119 115 117 118 115 115 121 124 127 127 131 134 131 131 127 119 114 102 94 93 97 101 93 84 86 81 76 73 70 64 55 53 69 68 52 46 38 28 23 31 38 6 15 352 317 278 262 255 245 267 327 55 47 48 46 45 43 44 46 44 41
196 193 188 185 184 181 183 190 190 180 177 174 171 173 173 168 158 152 150 149 148 143 142 134 118 111 108 105 101 101 107 107 108 111 119 128 122 125 129 121 110 97 95 97 99 98 93 91 89 80 74 73 69 67 66 64 69 71 64 56 47 45 42 47 63 63 61 46 28 26 2 261 252 255 234 172 318 294 319 6 22 29 37 38 37
194 195 193 196 193 186 189 194 192 180 173 170 170 173 174 170 158 154 155 154 150 147 149 145 130 123 118 109 100 95 96 92 88 91 101 110 114 118 119 117 109 100 98 98 98 94 89 87 87 81 75 76 77 73 70 67 67 68 67 61 55 59 63 69 78 76 71 63 53 54 60 63 54 21 208 241 285 283 281 289 313 324 340 2 15
190 193 197 203 201 195 194 193 191 184 175 170 171 176 175 175 167 157 153 153 150 152 158 155 140 135 131 123 121 111 102 93 81 79 91 99 102 107 105 108 109 105 100 94 96 96 87 83 86 87 85 83 81 76 71 69 68 67 69 71 68 68 73 77 79 77 74 71 67 65 66 68 67 65 66 52 16 339 320 312 304 307 320 321 317
187 189 193 195 198 200 198 192 189 187 181 175 174 177 178 179 175 164 156 151 153 159 166 160 147 143 139 125 140 147 125 111 94 77 84 91 88 93 97 103 105 104 100 94 96 93 83 86 88 87 87 84 81 79 77 74 72 70 71 77 77 74 75 78 78 78 78 75 73 74 75 77 78 78 76 71 67 61 53 49 37 20 23 22 359
184 184 185 189 192 194 194 191 190 190 184 181 179 181 183 184 180 175 167 158 158 162 161 160 157 153 145 129 143 157 137 136 121 90 85 86 82 91 96 101 103 101 98 93 89 84 80 85 85 83 83 82 84 84 83 81 78 76 75 80 84 82 81 81 82 82 83 81 78 77 78 79 81 82 83 81 79 77 74 70 66 63 63 57 45
176 175 178 191 195 187 189 194 194 192 188 184 183 184 186 189 189 186 180 168 163 162 161 168 168 163 158 154 205 157 148 152 145 109 101 90 79 87 92 98 101 98 95 87 78 78 83 86 82 82 82 83 89 90 91 91 88 84 82 86 90 92 91 89 87 85 83 82 80 78 78 77 76 75 76 77 79 80 79 76 72 68 65 60 54
170 173 178 189 190 185 190 196 192 192 191 185 185 187 187 191 194 193 189 180 171 165 162 170 176 181 180 188 309 155 153 155 153 143 131 105 85 85 88 97 100 96 90 79 74 80 87 90 87 86 88 89 93 97 97 94 91 89 88 90 93 94 95 92 90 87 83 81 80 80 80 78 77 75 73 73 74 76 76 74 73 69 62 57 55
173 175 179 182 183 185 190 191 188 189 189 186 185 187 187 189 195 200 199 190 180 168 156 168 184 196 191 201 187 159 156 149 149 148 143 131 116 98 91 95 97 96 91 82 80 86 90 94 96 95 97 97 98 101 101 98 96 95 94 95 94 93 91 90 91 88 85 83 81 80 79 77 76 75 74 73 72 72 72 71 69 66 60 56 55
168 169 172 173 176 183 186 184 184 184 187 189 187 188 190 192 197 202 204 200 189 175 169 180 191 195 189 179 148 155 154 135 139 139 136 144 141 130 122 112 103 92 86 86 88 94 98 100 103 104 104 104 105 106 106 105 103 102 103 102 99 96 93 92 93 92 91 88 85 82 79 77 75 74 72 70 70 68 67 66 64 61 56 52 50
156 157 161 164 166 174 180 180 180 184 189 194 194 192 193 194 197 200 207 210 204 197 197 198 199 199 197 183 156 156 157 146 146 141 136 141 141 144 145 135 121 100 84 92 98 103 107 108 110 112 112 112 112 112 111 110 110 108 108 107 102 99 97 97 95 94 92 89 86 83 79 76 73 70 69 66 65 64 63 62 61 60 57 53 51
150 150 152 153 157 162 170 177 181 186 190 194 195 193 193 194 196 199 205 210 210 212 217 217 212 208 208 199 177 173 175 170 166 158 147 142 140 145 149 139 128 119 111 110 109 113 115 116 120 121 122 121 119 118 117 115 114 114 113 111 107 103 99 97 96 93 91 88 85 82 78 74 70 67 66 64 63 62 62 62 62 62 61 59 56
149 149 149 145 149 155 166 177 183 188 191 192 192 192 194 193 194 199 202 203 206 212 219 222 217 211 211 211 202 194 191 181 170 166 159 150 145 145 148 145 136 129 131 125 114 115 121 124 128 130 129 126 125 126 124 121 119 118 117 113 109 106 103 99 96 93 91 89 87 84 79 74 70 68 66 64 64 63 62 62 61 61 60 59 58
152 151 150 145 148 152 166 181 185 186 186 186 187 190 190 188 192 198 200 200 203 209 217 220 216 212 213 213 214 211 204 188 175 169 156 148 145 142 147 152 145 138 140 135 123 120 127 135 137 137 135 133 134 133 130 127 124 120 116 113 111 109 107 103 99 95 91 88 86 84 79 74 70 67 64 63 62 61 60 60 59 58 57 55 54
159 158 156 155 159 163 173 182 181 176 175 177 180 185 189 188 189 192 194 198 205 212 216 218 217 218 217 216 219 219 210 197 185 178 163 153 149 144 145 145 139 141 143 141 140 135 138 149 151 145 144 143 141 140 137 133 128 123 117 114 115 113 109 105 101 97 92 87 84 81 78 73 70 67 64 62 60 58 56 54 53 52 51 50 48
168 165 159 155 159 161 166 172 170 164 164 168 174 181 189 190 185 186 192 197 205 211 210 210 217 222 222 219 219 218 214 201 190 185 174 164 159 153 150 146 139 144 149 150 155 152 149 156 160 159 157 153 150 147 144 141 134 128 123 120 120 118 113 109 104 99 93 88 83 79 75 70 67 66 63 62 59 57 53 49 46 42 39 37 35
177 170 157 146 137 128 137 155 161 160 160 164 173 183 189 189 185 187 194 194 195 199 198 202 212 218 218 214 207 209 212 201 192 191 184 176 171 165 160 157 154 153 157 163 167 161 160 163 164 172 172 161 158 156 151 149 144 137 132 129 127 125 121 114 109 103 96 91 85 78 73 67 63 61 60 59 57 55 51 47 42 35 30 26 23
175 167 157 144 130 119 126 146 158 164 168 169 176 184 187 187 187 191 192 189 188 190 191 197 205 208 208 203 196 202 206 198 196 195 192 187 182 176 171 167 163 160 161 170 176 172 175 177 172 175 180 172 167 165 162 159 154 147 142 139 135 132 131 125 118 113 105 96 88 80 73 64 59 56 54 53 52 50 47 43 38 32 25 16 12
164 162 157 146 135 128 132 150 164 172 174 172 172 172 172 174 178 183 185 183 183 185 186 192 201 203 196 191 188 193 197 195 196 196 193 193 189 184 183 181 173 167 165 165 172 176 176 182 183 176 178 179 175 173 173 170 164 158 154 150 146 142 139 137 133 128 123 112 96 81 68 56 49 48 47 45 44 41 39 35 31 25 19 10 0
158 161 161 154 142 141 154 156 162 165 162 160 160 157 157 163 170 178 181 177 179 185 188 192 198 195 188 185 183 185 189 191 193 193 192 193 193 193 195 194 188 179 172 165 167 179 180 182 186 180 178 181 181 180 180 178 173 169 167 164 162 160 155 153 154 152 151 154 143 109 38 13 17 29 36 36 35 32 29 26 22 17 12 5 356
160 163 164 159 142 149 166 155 145 152 152 151 153 151 155 161 169 177 177 174 178 186 190 190 189 185 184 184 183 183 184 187 190 191 191 194 196 200 202 200 198 191 181 174 166 172 182 185 180 179 182 183 186 187 186 185 183 178 177 177 175 174 174 177 181 181 183 198 213 231 258 284 313 350 18 24 24 23 19 15 12 9 5 359 354
166 167 164 157 146 157 165 148 133 139 142 143 145 146 150 156 162 167 168 169 176 182 184 182 180 181 184 187 188 187 186 188 192 192 193 197 199 204 208 202 200 199 191 189 177 162 181 191 184 182 188 188 191 193 193 193 191 188 187 189 190 188 191 196 202 206 212 219 232 245 256 267 278 302 346 5 10 12 9 5 2 359 355 352 350
169 166 159 151 145 149 155 144 127 127 129 131 134 136 138 137 138 144 146 151 160 164 167 168 171 177 181 186 191 193 193 194 194 195 199 202 200 203 210 206 202 203 198 194 187 170 181 192 192 190 192 193 196 199 200 200 197 198 199 200 201 202 205 208 211 217 225 228 237 250 260 267 270 280 312 340 351 355 355 354 353 349 342 339 342
167 162 152 146 142 136 142 145 134 128 130 132 133 135 132 124 121 127 134 141 146 147 150 154 158 163 162 164 175 185 194 198 199 201 204 207 203 202 210 213 211 212 209 203 201 191 184 188 193 194 195 198 201 202 204 206 205 206 209 212 214 215 215 216 217 223 228 231 238 249 258 268 270 271 290 317 331 339 343 344 346 344 336 331 335
161 158 151 147 147 140 138 142 140 133 131 136 142 146 143 133 128 131 138 147 149 144 142 143 145 148 148 141 132 157 183 194 202 206 208 212 213 209 213 219 222 225 224 221 220 211 198 193 194 197 198 200 203 205 205 209 212 213 216 221 223 225 225 225 226 229 232 235 240 246 254 263 265 265 278 302 317 325 333 336 336 337 332 330 334
154 157 157 154 154 154 150 148 145 140 132 133 141 149 152 145 139 143 152 160 160 152 145 142 144 148 154 157 152 163 173 181 194 203 208 213 217 217 219 222 225 233 236 233 228 220 217 210 200 201 203 200 204 211 210 209 213 217 222 226 227 229 232 234 235 234 234 236 240 243 250 254 252 254 272 294 310 319 324 326 327 326 327 332 333
149 152 157 156 154 156 158 156 153 147 142 143 143 149 157 151 144 150 161 166 165 157 150 150 159 171 177 179 183 182 169 164 174 186 198 207 214 219 224 225 228 236 241 238 231 223 223 224 213 208 209 207 207 212 215 214 214 216 221 228 233 236 239 241 240 236 232 231 233 235 240 242 242 250 269 287 299 307 309 309 311 313 319 326 328
147 147 149 152 155 157 159 159 155 150 146 150 149 149 159 163 165 172 175 170 166 162 157 156 168 180 182 181 178 168 151 143 156 166 184 201 212 221 228 233 236 242 244 238 227 220 220 223 224 217 213 212 210 212 218 220 221 224 225 227 231 236 241 242 236 229 225 224 225 227 230 234 239 250 264 278 283 288 292 296 302 311 318 325 326
151 152 152 152 157 163 166 166 165 163 154 148 150 156 161 168 182 196 196 183 173 168 167 166 168 172 175 177 179 177 169 167 182 193 204 218 225 230 234 238 242 247 247 236 223 218 217 220 224 220 214 215 214 214 218 220 223 228 229 229 229 230 234 234 227 218 215 215 215 217 223 227 232 242 252 261 267 272 282 293 302 312 320 327 330
160 162 162 162 167 172 173 171 171 175 174 163 161 166 167 166 169 182 193 195 192 182 174 178 181 178 178 181 184 188 193 195 202 212 222 230 235 240 243 243 244 248 246 236 223 216 217 221 222 217 215 218 215 213 215 219 223 225 227 230 230 225 222 218 215 213 208 204 204 208 216 219 218 222 219 224 249 266 281 294 303 314 320 327 330
176 177 179 189 196 191 184 180 175 178 185 183 172 173 176 176 170 167 176 190 199 200 198 201 205 204 204 205 208 213 220 226 232 236 235 233 233 236 240 243 246 249 246 239 228 219 220 225 225 220 221 223 220 220 223 226 228 229 231 231 228 219 212 203 204 214 213 204 195 198 210 215 211 207 200 211 243 259 267 278 290 307 318 322 323
177 185 192 201 193 179 170 166 161 164 176 182 183 190 194 194 190 180 175 184 196 205 214 218 220 220 221 225 230 235 243 249 255 258 256 251 245 241 239 239 242 245 244 240 234 230 230 231 231 229 230 233 232 230 231 234 236 239 238 233 225 215 211 209 208 215 217 210 195 188 207 216 212 203 198 212 236 247 249 270 291 305 313 315 314
145 153 155 154 148 138 132 129 124 117 111 98 85 245 234 227 224 214 203 202 201 208 218 224 229 234 237 244 249 254 260 266 270 273 272 268 260 253 247 243 242 243 243 241 238 238 239 240 240 237 238 243 241 238 239 241 242 243 242 235 225 218 218 223 223 217 216 212 200 186 203 213 210 202 205 220 236 249 260 277 295 302 302 304 306
117 118 118 121 123 122 122 120 114 107 99 87 79 58 270 261 262 259 258 261 256 254 255 252 254 257 260 265 268 271 274 275 278 279 278 274 266 259 254 250 248 248 248 248 247 247 247 246 244 244 248 251 248 246 253 254 249 245 241 235 230 226 226 231 228 223 221 214 201 191 200 206 206 205 212 228 242 255 266 281 292 292 292 296 299
99 98 99 103 107 111 114 114 112 107 96 86 86 92 98 259 267 271 273 275 279 279 280 281 281 282 284 286 286 287 288 287 287 286 285 281 275 269 264 261 259 258 256 255 254 253 253 251 249 250 257 262 258 253 257 261 255 245 238 235 236 234 233 236 237 234 229 214 199 196 204 203 206 212 213 224 241 254 261 279 289 286 287 291 294
88 86 86 88 91 94 97 101 104 99 90 84 86 91 98 174 247 258 263 268 274 277 278 279 281 282 284 285 286 287 288 288 288 288 288 287 284 279 274 270 269 266 263 261 259 258 256 255 254 254 256 262 264 259 258 260 256 251 249 249 248 244 241 242 240 233 223 210 200 200 209 204 206 215 215 218 237 252 256 275 286 282 279 283 291
82 78 78 77 78 81 82 86 89 86 80 75 72 72 73 68 268 259 264 273 280 283 283 281 278 278 278 279 280 279 279 281 282 282 284 286 286 282 277 274 274 271 268 266 264 262 260 257 257 256 256 259 261 260 262 262 256 254 255 251 245 241 235 228 218 202 204 209 204 201 209 206 203 214 221 215 231 251 252 264 275 273 270 275 288
76 69 65 65 65 67 67 69 72 71 66 57 46 39 28 14 6 352 339 329 316 307 303 299 295 293 290 285 284 283 281 281 281 280 280 280 282 282 277 274 274 272 272 272 267 262 261 259 258 259 259 259 258 258 260 258 252 251 248 237 232 229 218 207 199 189 198 209 207 204 211 210 202 211 222 223 243 263 259 245 249 260 270 281 291
72 64 56 51 49 47 46 49 51 51 47 36 23 14 4 356 355 355 352 347 337 326 318 313 311 310 306 302 300 297 294 291 289 288 286 282 280 278 274 272 270 268 271 274 271 266 263 261 260 260 259 258 256 255 256 254 253 254 247 237 234 226 211 208 205 187 190 207 210 207 206 206 205 208 224 248 257 257 248 226 224 244 276 291 295
73 65 48 35 30 27 25 26 27 31 29 18 6 358 352 345 344 344 344 340 333 326 318 312 308 305 303 303 303 302 301 297 291 287 284 282 278 273 269 267 262 260 264 270 272 270 267 264 263 261 260 259 257 257 259 257 255 253 246 240 236 224 212 210 200 181 182 209 212 209 203 202 210 209 231 268 269 249 234 227 225 243 278 287 286